| time (UTC) | temp F | wind direction | speed MPH | gust MPH | rain 1hr in | rain 24hr in | rain mn in | humidity % | barometer mb |
| 20260505124504 | 47 | 291 | 2.0 | 3.0 | 0.00 | 0.00 | 0.00 | 100 | 1013.3 |
| 20260505124005 | 47 | 255 | 2.0 | 3.0 | 0.00 | 0.00 | 0.00 | 100 | 1013.4 |
| 20260505122505 | 44 | 263 | 1.0 | 2.0 | 0.00 | 0.00 | 0.00 | 100 | 1013.4 |
| 20260505121504 | 44 | 282 | 1.0 | 2.0 | 0.00 | 0.00 | 0.00 | 100 | 1013.2 |
| 20260505121005 | 45 | 282 | 1.0 | 2.0 | 0.00 | 0.00 | 0.00 | 100 | 1013.1 |
| 20260505120504 | 45 | 288 | 1.0 | 1.0 | 0.00 | 0.00 | 0.00 | 100 | 1013.1 |
| 20260505114504 | 43 | 318 | 1.0 | 2.0 | 0.00 | 0.00 | 0.00 | 100 | 1012.6 |
| 20260505114004 | 43 | 318 | 2.0 | 3.0 | 0.00 | 0.00 | 0.00 | 100 | 1012.5 |
| 20260505113004 | 44 | 261 | 2.0 | 3.0 | 0.00 | 0.00 | 0.00 | 100 | 1012.4 |
| 20260505112504 | 44 | 233 | 1.0 | 2.0 | 0.00 | 0.00 | 0.00 | 100 | 1012.4 |
| 20260505112004 | 44 | 217 | 3.0 | 3.0 | 0.00 | 0.00 | 0.00 | 100 | 1012.4 |
| 20260505111505 | 44 | 225 | 2.0 | 3.0 | 0.00 | 0.00 | 0.00 | 100 | 1012.2 |
| 20260505100504 | 47 | 304 | 3.0 | 5.0 | 0.00 | 0.00 | 0.00 | 100 | 1010.9 |
| 20260505095504 | 47 | 319 | 3.0 | 5.0 | 0.00 | 0.00 | 0.00 | 100 | 1010.8 |
| 20260505093004 | 48 | 327 | 3.0 | 3.0 | 0.00 | 0.00 | 0.00 | 100 | 1010.8 |
| 20260505092504 | 48 | 347 | 2.0 | 3.0 | 0.00 | 0.00 | 0.00 | 100 | 1010.8 |
| 20260505091505 | 48 | 352 | 4.0 | 8.0 | 0.00 | 0.00 | 0.00 | 100 | 1010.8 |
| 20260505090503 | 48 | 302 | 5.0 | 7.0 | 0.00 | 0.00 | 0.00 | 100 | 1011.3 |
| 20260505090004 | 48 | 287 | 5.0 | 9.0 | 0.00 | 0.00 | 0.00 | 100 | 1011.3 |
| 20260505085004 | 48 | 324 | 5.0 | 10.0 | 0.00 | 0.00 | 0.00 | 100 | 1010.7 |
| 20260505084503 | 48 | 344 | 8.0 | 12.0 | 0.00 | 0.00 | 0.00 | 100 | 1010.0 |
| 20260505083504 | 48 | 329 | 6.0 | 12.0 | 0.00 | 0.00 | 0.00 | 100 | 1010.2 |
| 20260505083005 | 48 | 338 | 4.0 | 8.0 | 0.00 | 0.00 | 0.00 | 100 | 1010.0 |
| 20260505082504 | 48 | 347 | 3.0 | 9.0 | 0.00 | 0.00 | 0.00 | 100 | 1010.2 |
| 20260505082005 | 48 | 3 | 6.0 | 10.0 | 0.00 | 0.00 | 0.00 | 100 | 1009.9 |
| 20260505081504 | 48 | 345 | 7.0 | 10.0 | 0.00 | 0.00 | 0.00 | 100 | 1009.8 |
| 20260505081004 | 48 | 326 | 9.0 | 13.0 | 0.00 | 0.00 | 0.00 | 100 | 1010.1 |
| 20260505075004 | 50 | 356 | 10.0 | 17.0 | 0.00 | 0.00 | 0.00 | 100 | 1009.1 |
| 20260505074504 | 50 | 331 | 12.0 | 20.0 | 0.00 | 0.00 | 0.00 | 100 | 1009.8 |
| 20260505074004 | 50 | 304 | 16.0 | 24.0 | 0.00 | 0.00 | 0.00 | 100 | 1010.0 |
| 20260505073504 | 50 | 340 | 12.0 | 20.0 | 0.00 | 0.00 | 0.00 | 100 | 1009.4 |
| 20260505072504 | 50 | 326 | 12.0 | 17.0 | 0.00 | 0.00 | 0.00 | 100 | 1009.4 |
| 20260505072004 | 50 | 347 | 9.0 | 16.0 | 0.00 | 0.00 | 0.00 | 100 | 1009.1 |
| 20260505071503 | 50 | 321 | 12.0 | 17.0 | 0.00 | 0.00 | 0.00 | 100 | 1009.3 |
| 20260505071004 | 50 | 332 | 7.0 | 17.0 | 0.00 | 0.00 | 0.00 | 100 | 1009.2 |
| 20260505065504 | 50 | 317 | 11.0 | 15.0 | 0.00 | 0.00 | 0.00 | 100 | 1008.8 |
| 20260505061504 | 51 | 328 | 14.0 | 24.0 | 0.00 | 0.00 | 0.00 | 100 | 1007.4 |
| 20260505061004 | 51 | 335 | 20.0 | 25.0 | 0.00 | 0.00 | 0.00 | 100 | 1007.2 |
| 20260505060504 | 51 | 338 | 17.0 | 26.0 | 0.00 | 0.00 | 0.00 | 100 | 1007.5 |
| 20260505060004 | 51 | 316 | 17.0 | 23.0 | 0.00 | 0.00 | 0.00 | 100 | 1007.8 |
| 20260505055503 | 51 | 326 | 20.0 | 29.0 | 0.00 | 0.00 | 0.00 | 100 | 1007.8 |
| 20260505054504 | 52 | 312 | 13.0 | 21.0 | 0.00 | 0.00 | 0.00 | 100 | 1007.7 |
| 20260505053504 | 52 | 315 | 14.0 | 20.0 | 0.00 | 0.00 | 0.00 | 100 | 1007.6 |
| 20260505052504 | 52 | 341 | 10.0 | 17.0 | 0.00 | 0.00 | 0.00 | 100 | 1007.0 |
| 20260505040506 | 55 | 307 | 7.0 | 10.0 | 0.00 | 0.00 | 0.00 | 100 | 1007.0 |
| 20260505035505 | 55 | 309 | 8.0 | 9.0 | 0.00 | 0.00 | 0.00 | 100 | 1006.8 |
| 20260505033006 | 56 | 307 | 8.0 | 13.0 | 0.00 | 0.00 | 0.00 | 100 | 1006.5 |
| 20260505031506 | 57 | 306 | 7.0 | 10.0 | 0.00 | 0.00 | 0.00 | 100 | 1006.2 |
| 20260505025506 | 58 | 306 | 7.0 | 12.0 | 0.00 | 0.00 | 0.00 | 100 | 1006.1 |
| 20260505022005 | 60 | 312 | 11.0 | 16.0 | 0.00 | 0.00 | 0.00 | 100 | 1005.5 |
| 20260505021006 | 60 | 323 | 11.0 | 14.0 | 0.00 | 0.00 | 0.00 | 100 | 1005.3 |
| 20260505020005 | 60 | 323 | 11.0 | 14.0 | 0.00 | 0.00 | 0.00 | 100 | 1005.0 |
| 20260505015505 | 61 | 324 | 10.0 | 16.0 | 0.00 | 0.00 | 0.00 | 100 | 1004.9 |
| 20260505014506 | 61 | 316 | 9.0 | 20.0 | 0.00 | 0.00 | 0.00 | 100 | 1004.6 |
| 20260505012505 | 63 | 320 | 16.0 | 23.0 | 0.00 | 0.00 | 0.00 | 100 | 1003.9 |
| 20260505011005 | 64 | 317 | 16.0 | 23.0 | 0.00 | 0.00 | 0.00 | 100 | 1003.6 |
| 20260505010006 | 65 | 316 | 19.0 | 29.0 | 0.00 | 0.00 | 0.00 | 100 | 1003.1 |
| 20260505005005 | 66 | 314 | 15.0 | 23.0 | 0.00 | 0.00 | 0.00 | 100 | 1002.8 |
| 20260505004506 | 67 | 313 | 17.0 | 26.0 | 0.00 | 0.00 | 0.00 | 100 | 1002.7 |
| 20260505003506 | 68 | 304 | 26.0 | 36.0 | 0.00 | 0.00 | 0.00 | 100 | 1002.1 |
| 20260505003006 | 69 | 310 | 23.0 | 29.0 | 0.00 | 0.00 | 0.00 | 100 | 1002.1 |
| 20260505002505 | 69 | 311 | 20.0 | 30.0 | 0.00 | 0.00 | 0.00 | 100 | 1002.0 |
| 20260505001006 | 71 | 320 | 18.0 | 25.0 | 0.00 | 0.00 | 0.00 | 100 | 1001.4 |
| 20260505000005 | 72 | 323 | 21.0 | 26.0 | 0.00 | 0.00 | 0.00 | 100 | 1001.1 |
| 20260504235506 | 72 | 322 | 17.0 | 28.0 | 0.00 | 0.00 | 0.00 | 100 | 1001.1 |
| 20260504235006 | 72 | 327 | 21.0 | 31.0 | 0.00 | 0.00 | 0.00 | 100 | 1001.1 |
| 20260504234505 | 73 | 317 | 16.0 | 22.0 | 0.00 | 0.00 | 0.00 | 100 | 1001.0 |
| 20260504233505 | 74 | 319 | 15.0 | 25.0 | 0.00 | 0.00 | 0.00 | 100 | 1000.9 |
| 20260504233006 | 74 | 327 | 18.0 | 24.0 | 0.00 | 0.00 | 0.00 | 100 | 1001.0 |
| 20260504232505 | 74 | 320 | 19.0 | 29.0 | 0.00 | 0.00 | 0.00 | 100 | 1000.8 |
| 20260504231505 | 75 | 321 | 20.0 | 28.0 | 0.00 | 0.00 | 0.00 | 100 | 1000.6 |
| 20260504230505 | 77 | 324 | 20.0 | 26.0 | 0.00 | 0.00 | 0.00 | 100 | 1000.3 |
| 20260504225505 | 77 | 316 | 17.0 | 24.0 | 0.00 | 0.00 | 0.00 | 100 | 1000.3 |
| 20260504224505 | 78 | 325 | 14.0 | 24.0 | 0.00 | 0.00 | 0.00 | 100 | 1000.1 |
| 20260504224006 | 79 | 311 | 21.0 | 28.0 | 0.00 | 0.00 | 0.00 | 100 | 1000.0 |
| 20260504223505 | 79 | 322 | 20.0 | 30.0 | 0.00 | 0.00 | 0.00 | 100 | 999.9 |
| 20260504222005 | 81 | 323 | 19.0 | 30.0 | 0.00 | 0.00 | 0.00 | 100 | 999.5 |
| 20260504221005 | 82 | 302 | 20.0 | 28.0 | 0.00 | 0.00 | 0.00 | 100 | 999.4 |
| 20260504220505 | 82 | 321 | 16.0 | 21.0 | 0.00 | 0.00 | 0.00 | 100 | 999.3 |
| 20260504214005 | 83 | 239 | 9.0 | 21.0 | 0.00 | 0.00 | 0.00 | 100 | 999.3 |
| 20260504213505 | 81 | 246 | 10.0 | 13.0 | 0.00 | 0.00 | 0.00 | 100 | 999.5 |
| 20260504213005 | 81 | 252 | 13.0 | 21.0 | 0.00 | 0.00 | 0.00 | 100 | 999.6 |
| 20260504211505 | 83 | 257 | 12.0 | 20.0 | 0.00 | 0.00 | 0.00 | 100 | 999.6 |
| 20260504205505 | 82 | 262 | 14.0 | 22.0 | 0.00 | 0.00 | 0.00 | 100 | 999.6 |
| 20260504204005 | 82 | 248 | 13.0 | 20.0 | 0.00 | 0.00 | 0.00 | 100 | 1000.0 |
| 20260504203504 | 81 | 266 | 17.0 | 25.0 | 0.00 | 0.00 | 0.00 | 100 | 1000.0 |
| 20260504203005 | 81 | 263 | 16.0 | 26.0 | 0.00 | 0.00 | 0.00 | 100 | 1000.1 |
| 20260504202505 | 82 | 258 | 12.0 | 28.0 | 0.00 | 0.00 | 0.00 | 100 | 1000.1 |
| 20260504201504 | 80 | 253 | 13.0 | 22.0 | 0.00 | 0.00 | 0.00 | 100 | 1000.3 |
| 20260504201005 | 80 | 251 | 13.0 | 18.0 | 0.00 | 0.00 | 0.00 | 100 | 1000.4 |
| 20260504200505 | 81 | 257 | 15.0 | 22.0 | 0.00 | 0.00 | 0.00 | 100 | 1000.3 |
| 20260504195004 | 81 | 258 | 17.0 | 24.0 | 0.00 | 0.00 | 0.00 | 100 | 1000.5 |
| 20260504194505 | 81 | 258 | 14.0 | 20.0 | 0.00 | 0.00 | 0.00 | 100 | 1000.6 |
| 20260504194005 | 82 | 257 | 18.0 | 24.0 | 0.00 | 0.00 | 0.00 | 100 | 1000.6 |
| 20260504193504 | 82 | 264 | 17.0 | 26.0 | 0.00 | 0.00 | 0.00 | 100 | 1000.6 |
| 20260504193005 | 81 | 247 | 14.0 | 26.0 | 0.00 | 0.00 | 0.00 | 100 | 1000.6 |
| 20260504192505 | 81 | 248 | 15.0 | 23.0 | 0.00 | 0.00 | 0.00 | 100 | 1000.8 |
| 20260504192004 | 81 | 265 | 10.0 | 23.0 | 0.00 | 0.00 | 0.00 | 100 | 1000.8 |
| 20260504190505 | 83 | 271 | 17.0 | 26.0 | 0.00 | 0.00 | 0.00 | 100 | 1000.8 |
| 20260504190005 | 83 | 272 | 18.0 | 28.0 | 0.00 | 0.00 | 0.00 | 100 | 1000.8 |
| 20260504185505 | 82 | 253 | 12.0 | 20.0 | 0.00 | 0.00 | 0.00 | 100 | 1001.0 |
| 20260504184005 | 83 | 256 | 13.0 | 20.0 | 0.00 | 0.00 | 0.00 | 100 | 1001.1 |
| 20260504183505 | 83 | 225 | 14.0 | 24.0 | 0.00 | 0.00 | 0.00 | 100 | 1001.0 |
| 20260504183004 | 83 | 248 | 13.0 | 23.0 | 0.00 | 0.00 | 0.00 | 100 | 1001.0 |
| 20260504182005 | 82 | 269 | 13.0 | 22.0 | 0.00 | 0.00 | 0.00 | 100 | 1001.1 |
| 20260504175505 | 81 | 264 | 10.0 | 20.0 | 0.00 | 0.00 | 0.00 | 100 | 1001.0 |
| 20260504174005 | 80 | 241 | 13.0 | 18.0 | 0.00 | 0.00 | 0.00 | 100 | 1001.1 |
| 20260504173004 | 81 | 250 | 10.0 | 16.0 | 0.00 | 0.00 | 0.00 | 100 | 1001.5 |
| 20260504172505 | 80 | 218 | 8.0 | 16.0 | 0.00 | 0.00 | 0.00 | 100 | 1001.4 |
| 20260504170504 | 80 | 243 | 12.0 | 16.0 | 0.00 | 0.00 | 0.00 | 100 | 1001.8 |
| 20260504140505 | 64 | 206 | 5.0 | 8.0 | 0.00 | 0.00 | 0.00 | 100 | 1004.2 |